RH
75 75 75 71 67 65 65 65 64 62 64 67 70 73 75 74 74 74 71 68 64 59 56 54 51 50 52 54 54 57 58 52 47 45 51 54 53 56 57 54 54 54
76 75 75 72 68 65 64 63 61 62 64 67 68 71 73 73 72 72 70 67 60 56 55 54 53 53 54 55 56 59 59 55 54 52 53 54 51 52 54 52 53 54
76 76 75 73 70 66 64 62 60 62 65 67 67 69 72 72 71 70 68 66 60 55 55 54 54 56 57 57 56 59 59 56 58 58 54 55 55 54 55 55 56 57
76 76 74 73 71 67 65 64 63 64 66 67 66 66 68 68 69 69 67 64 59 54 54 54 54 54 56 60 58 58 59 57 57 59 56 55 56 56 57 59 60 62
75 75 74 74 72 68 67 66 65 65 66 67 67 65 64 65 66 68 66 62 57 54 54 55 55 54 56 61 61 58 57 59 60 59 58 59 58 57 57 57 58 60
75 75 74 74 72 69 69 68 66 65 66 68 68 67 66 64 64 66 64 60 57 56 56 56 58 58 58 61 62 59 57 58 59 57 57 59 60 60 60 59 57 55
76 75 74 73 72 70 69 69 67 65 65 68 69 69 68 66 63 62 61 59 57 57 57 58 59 60 61 61 62 63 62 60 58 56 57 59 59 61 62 61 59 57
75 74 74 73 72 72 70 68 67 66 66 67 69 68 68 67 64 62 60 58 57 57 57 58 59 61 62 61 60 63 66 65 61 60 61 60 60 60 60 59 60 61
74 74 74 74 73 73 71 69 68 67 67 67 67 67 66 66 64 63 61 59 57 58 58 58 59 61 63 62 60 61 63 64 63 62 62 61 58 56 56 56 57 59
73 73 73 74 74 72 71 70 69 68 68 67 67 66 66 65 64 63 62 60 59 59 59 60 60 61 63 64 62 60 60 61 62 62 62 62 60 59 59 60 60 60
72 72 72 74 74 72 71 71 70 69 69 68 67 67 67 66 65 64 64 62 61 61 60 60 61 61 63 64 64 63 62 62 62 62 62 62 63 63 62 61 60 60
72 72 72 73 73 72 71 70 69 69 69 69 67 67 67 67 67 66 65 64 63 62 61 61 61 63 63 63 64 64 64 64 63 62 62 62 63 61 59 58 58 59
72 71 70 71 72 71 70 69 69 68 68 69 68 67 66 67 68 68 67 66 65 64 63 62 62 65 65 63 64 65 65 66 65 64 64 64 64 63 62 63 63 64
70 70 69 69 70 70 69 68 67 66 67 68 68 67 66 66 68 70 69 68 67 66 65 62 63 67 67 64 64 64 64 65 66 66 67 67 66 65 66 66 66 65
69 69 69 69 69 69 68 67 66 65 65 66 67 66 66 66 68 71 72 71 68 68 67 65 65 67 67 66 65 65 65 66 67 68 68 67 66 66 66 66 65 64
67 68 68 68 69 69 68 67 66 64 63 63 65 65 66 68 71 74 76 74 71 70 70 69 68 68 68 67 66 66 67 67 68 67 66 65 65 66 68 67 66 66
65 66 67 67 68 69 69 68 66 64 62 61 62 64 66 68 73 77 79 77 75 73 71 71 70 70 69 70 69 68 67 68 66 61 59 62 65 67 68 68 67 65
64 65 66 67 68 68 69 69 67 65 63 62 63 65 67 69 72 76 78 78 78 75 73 71 69 67 68 71 73 72 70 68 63 56 56 62 66 68 68 67 66 65
62 65 66 67 67 68 69 69 68 67 64 63 65 68 70 71 72 74 77 78 78 76 74 71 67 66 69 72 75 78 76 70 61 57 60 65 67 69 69 67 66 67
62 64 65 67 67 68 69 69 68 68 66 64 67 72 74 73 72 74 76 78 78 77 75 74 72 72 73 74 78 83 81 72 61 57 62 67 68 69 71 70 69 68
61 63 64 67 68 68 69 69 68 68 68 68 70 74 75 74 72 73 74 76 77 76 75 76 75 75 75 76 79 83 80 71 62 57 61 68 70 71 72 72 72 71
60 63 65 68 70 70 70 70 69 69 70 73 74 75 76 74 71 71 72 73 74 73 72 72 71 71 71 72 75 76 75 70 61 58 65 72 73 73 73 72 72 74
57 63 67 70 71 72 73 72 72 73 75 76 77 77 75 73 73 72 70 69 69 68 65 65 67 67 66 65 65 66 68 65 56 58 70 76 75 75 75 73 74 74
56 62 68 71 73 74 75 75 76 78 78 77 76 76 75 73 73 73 70 68 66 64 63 65 67 66 64 62 61 60 61 59 54 58 69 75 77 78 78 76 75 73
57 63 68 72 75 77 77 79 80 80 79 77 75 74 73 72 72 73 73 71 67 65 65 67 68 65 63 63 62 59 58 56 56 60 67 74 79 81 80 78 75 73
60 67 71 75 78 79 80 81 81 80 79 77 74 72 70 71 73 73 72 71 69 68 67 67 67 64 62 61 60 58 57 56 57 62 69 76 81 81 79 78 76 76
Wind_Speed
35 34 34 35 35 32 32 33 32 32 31 31 31 32 32 31 31 32 30 27 27 27 26 23 21 22 20 16 18 19 17 15 14 13 13 15 16 13 10 9 9 8
36 36 35 35 36 33 32 34 34 34 33 32 32 33 33 32 32 32 31 29 28 27 25 23 23 23 21 19 19 19 17 15 15 14 13 14 15 14 12 10 9 8
37 37 37 37 37 34 32 34 35 35 34 33 33 33 32 33 33 33 32 31 30 28 25 25 25 24 22 20 20 19 18 17 17 16 15 15 15 14 14 13 10 8
38 38 39 39 37 35 33 35 36 35 34 34 34 33 32 32 33 34 34 32 30 28 27 26 25 24 23 21 20 20 20 19 18 17 17 17 17 16 15 14 12 10
40 39 40 39 37 35 35 36 37 36 35 35 35 34 33 33 32 32 34 34 31 29 29 27 25 24 24 22 21 20 21 22 20 19 18 16 17 18 16 15 14 13
40 40 40 40 38 37 36 37 38 37 36 36 36 35 35 35 33 31 34 35 33 31 30 28 26 25 24 23 22 20 21 22 21 21 20 16 15 16 16 14 13 13
40 41 41 40 39 38 37 37 38 38 37 36 36 36 36 37 36 34 34 35 34 32 30 29 28 26 25 24 24 23 22 22 21 20 21 19 16 16 15 15 14 13
40 41 41 40 40 38 37 38 38 39 39 37 36 37 37 37 37 36 35 35 34 32 31 30 29 28 26 25 26 26 25 24 23 22 22 21 20 18 17 16 16 14
40 40 41 40 39 39 39 39 39 39 40 38 37 38 38 37 37 37 37 36 35 34 33 33 32 30 29 28 28 28 28 26 25 25 24 23 22 21 19 19 18 17
41 41 41 40 39 39 40 41 40 40 40 39 38 38 38 37 37 37 37 37 36 36 36 35 34 33 32 31 29 29 29 29 27 27 25 23 23 22 20 19 18 18
42 42 42 41 40 40 41 41 41 40 40 40 40 39 38 38 38 37 37 38 38 38 38 37 36 35 34 32 31 30 30 30 29 28 27 25 23 22 21 19 18 18
42 43 43 42 42 41 41 41 41 41 41 41 40 40 39 38 38 38 39 39 39 39 39 37 35 35 35 34 32 31 31 30 29 29 28 27 25 24 23 21 20 19
43 44 44 43 42 42 42 42 42 41 41 42 41 40 38 38 38 38 39 39 39 39 38 37 35 34 35 34 34 33 32 31 30 30 29 27 26 25 23 21 20 19
44 45 45 43 43 43 42 42 42 41 41 41 41 40 39 38 38 38 38 38 38 38 37 36 35 34 35 35 35 34 33 32 32 31 30 28 27 26 24 22 22 21
44 44 44 43 43 43 43 42 42 41 39 38 39 40 39 38 37 37 36 36 37 36 35 36 36 36 36 37 37 36 35 34 33 32 31 29 28 27 25 24 23 22
44 43 43 43 43 44 44 42 40 39 38 38 39 40 39 36 34 34 34 35 35 35 35 35 36 37 37 38 38 37 36 35 34 32 31 29 28 27 25 25 24 23
43 43 42 43 43 43 42 40 39 38 37 37 38 39 38 35 33 32 33 34 34 34 34 35 36 36 37 38 39 38 36 35 33 32 30 29 28 27 26 25 24 24
43 43 43 43 43 41 40 39 38 37 37 35 34 35 36 34 32 33 33 33 33 33 34 35 36 37 37 37 36 35 33 31 31 30 30 29 28 27 26 25 24 23
43 43 42 42 41 40 38 38 37 36 37 36 33 32 32 32 32 32 32 32 32 32 33 34 36 36 35 34 33 30 28 27 27 28 29 28 28 28 27 26 24 22
44 43 42 41 40 39 37 36 37 37 37 35 32 29 29 29 29 29 30 31 32 31 32 33 34 33 31 32 32 29 27 28 30 30 29 28 28 28 28 26 25 23
44 44 43 41 39 38 37 36 36 35 34 32 30 28 28 27 27 28 30 31 31 32 32 31 32 31 30 30 31 29 28 31 34 33 29 28 27 27 27 25 24 23
46 44 42 39 38 37 37 36 35 34 32 30 28 28 28 29 28 29 29 30 31 32 32 31 31 31 30 29 30 28 27 31 36 34 28 25 25 25 25 25 24 23
46 43 40 38 38 38 36 36 35 32 30 29 29 29 29 30 28 26 27 29 31 32 33 33 32 31 29 29 29 28 28 32 37 35 27 23 22 22 23 24 24 23
45 42 39 38 38 37 37 35 33 30 30 31 32 32 31 30 29 27 27 29 31 32 33 31 29 28 27 27 28 28 30 33 36 34 29 25 22 21 21 22 22 21
42 41 40 39 38 37 35 34 31 30 31 32 32 32 30 28 28 28 28 28 29 30 29 26 25 25 25 26 26 27 30 33 33 31 29 27 24 22 21 21 21 21
41 41 40 39 37 36 34 33 32 32 32 32 31 31 29 27 27 27 28 28 28 27 26 23 22 22 23 24 26 27 29 32 32 30 29 28 25 23 22 21 21 20
Wind_Direction
196 196 197 199 202 205 200 193 193 197 198 195 192 192 193 192 188 188 192 193 190 186 182 180 180 182 187 184 177 176 181 187 184 180 185 189 190 190 192 199 202 205
196 197 199 201 203 205 201 196 198 199 199 198 197 196 195 193 189 190 194 192 187 184 185 188 185 182 185 185 179 176 179 186 187 185 186 187 190 193 192 193 201 213
196 197 199 202 203 203 202 201 201 201 200 200 200 198 196 194 192 193 195 193 190 191 194 195 190 187 189 190 189 186 182 185 192 195 194 195 199 200 196 197 203 211
196 198 201 203 202 201 202 202 200 200 201 201 200 199 196 194 194 195 194 194 194 195 196 195 192 192 195 196 198 196 192 192 195 197 198 201 206 209 207 205 206 211
198 200 202 203 202 201 201 201 200 200 201 201 200 200 198 195 196 196 195 195 195 194 193 194 195 195 197 199 201 201 199 199 199 200 202 207 211 213 215 213 215 222
199 200 202 203 201 201 201 200 201 201 202 201 201 200 199 198 197 194 193 194 194 191 191 194 197 197 198 200 200 201 200 201 205 205 205 211 214 212 216 217 219 223
199 200 202 203 202 202 201 200 202 203 203 202 201 199 198 198 198 195 192 192 192 192 193 195 197 197 199 200 199 200 203 203 205 205 207 215 218 216 217 220 224 226
200 200 201 203 202 202 202 201 202 202 202 201 200 199 199 199 199 199 197 195 194 196 196 197 199 200 199 199 198 200 204 204 204 205 210 216 219 220 219 220 226 228
200 200 202 202 201 202 203 203 202 202 201 201 200 200 200 200 200 200 201 200 199 199 199 199 201 201 200 199 199 200 203 205 206 208 212 215 218 223 223 223 227 226
201 201 202 202 201 202 203 204 204 203 202 202 201 201 201 200 201 201 201 200 199 198 199 200 201 201 200 200 202 203 205 209 210 211 214 216 216 218 220 222 224 225
202 202 203 203 201 202 204 204 205 204 204 203 203 202 202 201 201 201 201 200 200 200 200 201 201 201 199 200 203 205 208 211 213 214 215 217 217 217 219 222 226 230
202 203 204 203 202 203 204 204 205 205 204 204 204 204 203 202 202 202 202 202 203 203 202 202 202 201 200 200 202 204 207 211 214 216 218 220 222 223 223 225 229 233
202 203 204 204 203 204 204 205 205 205 205 205 205 205 204 203 203 203 204 204 204 204 204 203 201 201 201 201 202 203 206 209 212 215 218 221 223 224 222 220 222 225
203 204 205 204 204 204 205 206 206 205 206 205 204 205 206 205 204 204 204 204 205 205 204 203 202 201 201 201 202 204 206 208 211 213 215 218 220 222 222 220 219 221
203 204 205 204 204 205 206 207 207 206 206 205 205 207 208 207 207 205 204 203 204 204 203 202 202 202 203 202 201 202 205 207 208 209 213 216 220 223 225 225 225 225
204 204 204 204 204 206 206 206 206 205 205 205 206 208 208 208 207 205 204 203 203 202 201 202 203 204 205 205 203 202 203 204 205 208 211 215 220 223 225 228 230 229
204 204 205 205 205 205 206 205 205 205 205 205 206 207 207 206 205 204 204 205 204 202 202 203 205 206 207 207 206 204 204 204 205 208 210 213 219 222 223 225 227 228
204 204 205 205 205 205 204 204 204 204 204 204 204 204 203 202 203 204 205 205 204 202 203 206 209 210 210 209 207 207 208 207 206 209 211 213 217 221 223 224 224 224
203 204 205 205 205 204 203 202 202 203 203 204 203 200 197 198 201 204 204 204 203 203 205 208 213 214 212 209 205 204 210 213 212 214 214 214 218 222 224 226 224 222
203 204 204 205 204 202 201 200 202 203 204 204 201 195 192 193 196 201 204 204 204 204 206 210 213 213 212 211 203 198 208 220 223 221 218 217 219 222 224 225 225 226
202 203 204 203 200 199 199 200 201 202 203 201 197 191 188 189 195 201 204 203 203 205 206 210 213 213 215 213 202 196 207 222 225 224 220 218 220 222 223 224 225 227
201 202 201 199 196 195 197 198 199 200 198 192 186 185 187 192 199 203 202 201 203 206 208 211 215 217 216 211 203 202 209 219 221 220 217 216 218 220 222 224 225 224
200 199 196 194 193 193 193 196 197 194 188 180 176 178 184 191 197 199 202 204 204 207 210 212 213 214 212 209 209 210 209 212 217 216 211 210 212 213 216 218 219 222
198 195 192 189 189 190 190 191 190 185 179 178 178 177 182 189 192 194 200 204 205 208 211 210 208 207 206 207 210 209 206 209 214 213 210 210 210 210 212 214 218 225
194 190 188 186 185 186 186 184 181 177 177 181 181 180 183 189 192 193 196 199 204 206 205 202 201 201 202 202 203 203 205 210 212 210 210 212 212 213 216 220 225 229
188 185 183 181 180 180 179 177 176 175 176 178 179 180 182 184 187 190 192 195 199 200 197 197 199 199 198 199 200 201 204 207 209 209 210 211 212 214 218 222 227 229